This is the latest recevied weather packets stored in our database for station/object SV9FBP-13. If no packets are shown the sender has not sent any weather packets the latest 10 day(s).
| Time | Temp. | Humidity | Pressure | Rain* | Wind** | Luminosity | Snow |
|---|---|---|---|---|---|---|---|
| 1788651328 | 27.78° C | 32% | 1011.9 hPa | 0 mm | - | - | - |
| 1788650426 | 27.78° C | 32% | 1012.1 hPa | 0 mm | - | - | - |
| 1788649524 | 27.78° C | 33% | 1011.9 hPa | 0 mm | - | - | - |
| 1788648621 | 27.78° C | 33% | 1012.1 hPa | 0 mm | - | - | - |
| 1788647719 | 27.78° C | 34% | 1012.1 hPa | 0 mm | - | - | - |
| 1788646818 | 27.78° C | 34% | 1012.1 hPa | 0 mm | - | - | - |
| 1788645915 | 27.78° C | 38% | 1012.1 hPa | 0 mm | - | - | - |
| 1788645013 | 27.78° C | 36% | 1012 hPa | 0 mm | - | - | - |
| 1788644112 | 27.22° C | 42% | 1011.9 hPa | 0 mm | - | - | - |
| 1788643209 | 27.22° C | 44% | 1012.1 hPa | 0 mm | - | - | - |
| 1788642307 | 27.22° C | 44% | 1012.3 hPa | 0 mm | - | - | - |
| 1788641404 | 27.22° C | 46% | 1012.2 hPa | 0 mm | - | - | - |
| 1788640502 | 26.67° C | 49% | 1012.3 hPa | 0 mm | - | - | - |
| 1788639600 | 26.67° C | 50% | 1012.3 hPa | 0 mm | - | - | - |
| 1788638698 | 26.67° C | 50% | 1012.4 hPa | 0 mm | - | - | - |
| 1788637796 | 26.67° C | 50% | 1012.5 hPa | 0 mm | - | - | - |
| 1788636894 | 27.22° C | 50% | 1012.5 hPa | 0 mm | - | - | - |
| 1788635994 | 27.22° C | 50% | 1012.7 hPa | 0 mm | - | - | - |
| 1788635090 | 27.22° C | 46% | 1012.9 hPa | 0 mm | - | - | - |
| 1788633287 | 27.22° C | 48% | 1012.6 hPa | 0 mm | - | - | - |
| 1788632384 | 27.22° C | 51% | 1012.4 hPa | 0 mm | - | - | - |
| 1788631484 | 27.78° C | 41% | 1012.3 hPa | 0 mm | - | - | - |
| 1788630578 | 27.78° C | 42% | 1012.1 hPa | 0 mm | - | - | - |
| 1788629679 | 27.78° C | 42% | 1012.1 hPa | 0 mm | - | - | - |
| 1788628780 | 27.78° C | 41% | 1011.8 hPa | 0 mm | - | - | - |
* Rain latest hour (hover to see other rain measurements)
** Current wind speed in m/s (hover to see current wind gust speed)